Weather Roundup
Issued by NWS Chicago, IL

Home | Current Version | Previous Version | Text Only | Print | Product List | Glossary Off
Versions: 1 2 3 4 5 6 7 8 9 10 11 12 13 14 15 16 17 18 19 20 21 22 23 24 25 26 27 28 29 30 31 32 33 34 35 36 37 38 39 40 41 42 43 44 45 46 47 48 49 50

000
NZUS59 KLOT 291622
HRRLOT

CHICAGO AREA WEATHER ROUNDUP
NATIONAL WEATHER SERVICE CHICAGO/ROMEOVILLE IL
1100 AM CDT WED JUL 29 2015

NOTE: "FAIR" INDICATES FEW OR NO CLOUDS BELOW 12,000 FEET WITH NO
SIGNIFICANT WEATHER AND/OR OBSTRUCTIONS TO VISIBILITY.

* THESE STATIONS ARE NOT UNDER NWS QUALITY CONTROL. THEY ALSO MAY NOT
  REPORT WEATHER SUCH AS PRECIPITATION OR FOG.

ILZ005-006-012>014-019>023-291700-
NORTHEAST ILLINOIS

CITY           SKY/WX    TMP DP  RH WIND       PRES   REMARKS
OHARE          PTSUNNY   82  66  58 NW13      29.98R HX  84
MIDWAY         CLOUDY    83  72  69 NW12      29.97R HX  88
AURORA         SUNNY     81  64  56 NW16      30.01R HX  82
LANSING*       CLOUDY    82  71  69 W7        29.97S HX  85
JOLIET*        CLOUDY    80  74  82 NW6       30.00R HX  85
WAUKEGAN       PTSUNNY   80  64  58 VRB6      29.98R HX  82
DUPAGE AIRPORT SUNNY     83  63  50 NW18      30.00R HX  84
WHEELING       PTSUNNY   83  62  49 NW12G20   29.99R HX  84
KANKAKEE*      PTSUNNY   81  75  84 N8        30.00R HX  86
MORRIS*        PTSUNNY   80  72  76 NW8       29.99R HX  84
LEWIS AIRPORT* CLOUDY    79  72  80 NW10      30.00R HX  81
NORTHERLY IS     N/A     78  72  81 N7          N/A  HX  80
$$

WIZ051-052-058>065-066-070>072-291700-
SOUTHEAST WISCONSIN

CITY           SKY/WX    TMP DP  RH WIND       PRES   REMARKS
MILWAUKEE      PTSUNNY   81  57  43 NW18G25   29.95R HX  81
KENOSHA*       PTSUNNY   79  66  64 W8        29.98R HX  81
RACINE*        PTSUNNY   82  63  52 W10       29.97S HX  83
BURLINGTON     PTSUNNY   81  58  44 NW14G21   29.99R HX  81
WAUKESHA       SUNNY     75  61  60 W15G21    29.98S
WEST BEND      PTSUNNY   77  50  38 W7G21     29.96S
$$

INZ001>003-010>013-019-020-291700-
NORTHWEST INDIANA

CITY           SKY/WX    TMP DP  RH WIND       PRES   REMARKS
GARY*          PTSUNNY   82  75  78 NW6       29.98R HX  89
MICHIGAN CITY* NOT AVBL
RENSSELAER*    NOT AVBL
VALPARAISO     CLOUDY    83  73  72 NW7       29.98R HX  89
$$

LMZ740>746-291700-
SOUTHERN LAKE MICHIGAN

STATION/POSITION TIME  SKY/WX   TEMP WIND        PRES    VSBY
                                AIR  DIR/SP/G
                 (UTC)          (F)  (DEG/KT/KT) (MB)    (MI)
HARRISON CRIB    1600            76  360/ 10/ 12   N/A
BURNHAM HARBOR   1600            78   20/  3/ 10   N/A
CALUMET HARBOR   1600            80   20/  6/ 10   N/A
BURNS HARBOR     1500            75  250/  6/  7 1014.9S
MICHIGAN CITY    1600            75  240/ 10/ 11   N/A
$$

ABBREVIATIONS USED IN REMARKS
   TC - TEMPERATURE IN CELSIUS
  WCI - WIND CHILL INDEX
   HX - HEAT INDEX
  VSB - VISIBILITY
$$


USA.gov is the U.S. government's official web portal to all federal, state and local government web resources and services.